sat.trackr.live / text

‹ back to catalog

STARLINK-2616

NORAD 48695 · 2021-044BK

PAYLOAD ACTIVE UNKNOWN

§ Identity

Operator
Country
US
Launch date
2021-05-26
Launch site
AFETR
Launch vehicle
Mass (kg)
RCS (m²)

Purposes: comms

External: N2YO · Heavens-Above · Gunter

§ Orbital elements

Epoch: 2026-09-19T16:51:18.271584Z

Period
94.01 min
Inclination
53.1596°
Eccentricity
0.0001429
Mean motion
15.31690455 rev/d
Perigee alt
469.8 km
Apogee alt
471.7 km
Semi-major
6,848.9 km
B*
3.6433e-6
RAAN
254.8883°
Arg perigee
93.5038°
Mean anomaly
266.6127°
Rev number
29,406

§ Raw data

STARLINK-26161 48695U 21044BK  26262.70229481 -.00000252  00000+0  36433-5 0  99972 48695  53.1596 254.8883 0001429  93.5038 266.6127 15.31690455294065

JSON: /api/v1/satellites/48695 · /tle

For live sub-satellite position, see the globe view (requires WebGL).

§ Visibility from observer

Set your observer location to see the next 7 days of passes ≥ 10°. The values pass through the URL so the page stays shareable.

No JS? Fill the form by hand. The geolocation button needs JavaScript.